Location: Bergnershof
(48.9468°N, 10.9431°E)
Time: 11:38:59
(UTC+00:00)

SAR-Lupe-1 - Pass Details

Date: 03 March 2021
Orbit: 482 x 483 km, 98.2° (Epoch: 30 March)

Event Time Altitude Azimuth Distance (km) Brightness Sun altitude
Rises 18:23:48 0° 12° (NNE) 2,561 7.7 -14.1°
Reaches altitude 10° 18:25:53 10° 11° (N) 1,675 6.7 -14.4°
Maximum altitude 18:29:29 76° 286° (WNW) 504 4.2 -15.0°
Drops below altitude 10° 18:33:02 10° 201° (SSW) 1,661 6.9 -15.6°
Sets 18:35:05 0° 200° (SSW) 2,536 7.9 -15.9°
